Terminal Aerodrome Forecast
Issued by NWS

Home | Current Version | Previous Version | Text Only | Print | Product List | Glossary On
Versions: 1 2 3 4 5 6 7 8 9 10 11 12 13 14
392
FTUS42 TJSJ 310543
TAFJPS
TAF
TJPS 310543Z 3106/0106 06005KT P6SM VCSH SCT020 SCT060
      TEMPO 3106/3108 VRB06KT SHRA BKN030
     FM311500 13012KT P6SM FEW030 SCT060
     FM312330 05005KT P6SM FEW025 SCT070
      AMD NOT SKED 3112/0103=

USA.gov is the U.S. government's official web portal to all federal, state and local government web resources and services.